Location: Dennehotso
(36.8461°N, 109.8435°W)
Time: 20:18:07
(UTC+00:00)

N. Korean satellite - Pass Details

Date: 05 March 2021
Orbit: 452 x 499 km, 97.2° (Epoch: 15 April)

Event Time Altitude Azimuth Distance (km) Brightness Sun altitude
Rises 12:24:16 0° 17° (NNE) 2,534 10.5 -16.8°
Reaches altitude 10° 12:26:22 10° 23° (NNE) 1,659 9.6 -16.4°
Maximum altitude 12:29:50 49° 100° (E) 630 7.5 -15.7°
Drops below altitude 10° 12:33:20 10° 176° (S) 1,672 9.3 -15.0°
Sets 12:35:27 0° 182° (S) 2,555 10.2 -14.6°
